Regional Weather Roundup
Issued by NWS

Home | Current Version | Previous Version | Text Only | Print | Product List | Glossary On
Versions: 1 2 3 4 5 6 7 8 9 10 11 12 13 14 15 16 17 18 19 20 21 22 23 24 25 26 27 28 29 30 31 32 33 34 35 36 37 38 39 40 41 42 43 44 45 46 47 48 49 50
000
ASUS43 KMKX 182000
RWRWI

WISCONSIN REGIONAL WEATHER ROUNDUP
NATIONAL WEATHER SERVICE MILWAUKEE/SULLIVAN WI
300 PM CDT THU SEP 18 2014

NOTE: "FAIR" INDICATES FEW OR NO CLOUDS BELOW 12,000 FEET WITH NO
SIGNIFICANT WEATHER AND/OR OBSTRUCTIONS TO VISIBILITY.

WIZ001-002-006>008-014>016-023>028-182100-
NORTHWEST WISCONSIN

CITY           SKY/WX    TMP DP  RH WIND       PRES   REMARKS
SUPERIOR ARPT  CLOUDY    49  44  80 NE7       30.13F
ASHLAND        CLOUDY    51  45  79 N8        30.14F
HAYWARD        CLOUDY    55  49  80 S7        30.11F
SIREN          PTSUNNY   62  51  68 SE7       30.09F
RICE LAKE      CLOUDY    56  49  79 SE9       30.13F
LADYSMITH      CLOUDY    56  49  78 E5        30.15F
EAU CLAIRE     NOT AVBL
MENOMONIE      PTCLDY    64  53  67 SE9       30.11F
NEW RICHMOND   SUNNY     66  54  63 SE7       30.09S
OSCEOLA        SUNNY     66  56  69 E7        30.10F
$$

WIZ003>005-009-010-017-018-182100-
NORTH CENTRAL WISCONSIN

CITY           SKY/WX    TMP DP  RH WIND       PRES   REMARKS
WOODRUFF       CLOUDY    52  45  78 SE5       30.15F
RHINELANDER    CLOUDY    52  43  71 S7        30.16F
EAGLE RIVER    CLOUDY    51  41  67 CALM      30.15F
LAND O LAKES   CLOUDY    54  43  66 S6        30.15F
PHILLIPS       CLOUDY    51  46  84 SE3       30.14F
TOMAHAWK       PTSUNNY   54  45  72 S3        30.16F
MEDFORD        CLOUDY    51  46  84 SE6       30.15F
MERRILL        CLOUDY    52  45  76 SE5       30.16F
$$

WIZ029-030-035-036-043>047-182100-
CENTRAL WISCONSIN

CITY           SKY/WX    TMP DP  RH WIND       PRES   REMARKS
WAUSAU         PTSUNNY   55  46  71 S9        30.15F
MOSINEE        CLOUDY    54  48  82 S6        30.17F
MARSHFIELD     CLOUDY    53  48  83 SE8       30.15F
STEVENS POINT  CLOUDY    50  44  79 E5        30.18F
WAUPACA        CLOUDY    57  47  71 CALM      30.18F
WAUTOMA        NOT AVBL
WISC RAPIDS      N/A     56  48  74 E5        30.17F
CAMP DOUGLAS   PTSUNNY   59  55  88 E8        30.14F
$$

WIZ011>013-019>022-031-037>040-048>050-182100-
NORTHEAST WISCONSIN

CITY           SKY/WX    TMP DP  RH WIND       PRES   REMARKS
ANTIGO         PTSUNNY   53  45  73 S5        30.17F
STURGEON BAY   CLOUDY    54  45  71 N6        30.19F
GREEN BAY      CLOUDY    56  46  69 VRB3      30.18F
MANITOWOC      NOT AVBL
APPLETON       PTSUNNY   55  45  67 VRB5      30.18F
CLINTONVILLE   CLOUDY    54  45  71 E5        30.18F
OSHKOSH        PTSUNNY   57  49  74 CALM      30.16F
$$

WIZ032>034-041-042-053>061-182100-
SOUTHWEST WISCONSIN

CITY           SKY/WX    TMP DP  RH WIND       PRES   REMARKS
LA CROSSE      SUNNY     69  55  60 E7        30.09F
SPARTA         MOSUNNY   62  51  68 E7        30.13F
VIROQUA        FAIR      64  54  68 E6        30.12F
BOSCOBEL       MOSUNNY   69  55  60 N8        30.11F
PRAIRIE DU CHI MOSUNNY   70  54  57 SE5       30.09F
PLATTEVILLE    FAIR      68  54  59 CALM      30.12S
$$

WIZ056-057-062-063-064-067-068-182100-
SOUTH CENTRAL WISCONSIN

CITY           SKY/WX    TMP DP  RH WIND       PRES   REMARKS
BARABOO/DELLS  PTSUNNY   59  49  71 E6        30.14F
LONE ROCK      NOT AVBL
WATERTOWN      CLOUDY    61  54  77 NE3       30.14F
MADISON        MOSUNNY   62  51  67 E5        30.14F
MIDDLETON      FAIR      62  52  69 SE5       30.14F
MONROE         SUNNY     64  54  68 CALM      30.12F
JANESVILLE     MOSUNNY   66  52  59 E6        30.13F
$$

WIZ051-052-058>065-066-070>072-182100-
SOUTHEAST WISCONSIN

CITY           SKY/WX    TMP DP  RH WIND       PRES   REMARKS
MILWAUKEE      CLOUDY    59  51  75 N8        30.16F
WAUKESHA       MOSUNNY   61  52  72 E7        30.16F
MILWAUKEE/TIMM CLOUDY    57  48  72 NE5       30.17F
RACINE         CLOUDY    59  52  77 N13       30.17F
BURLINGTON     MOSUNNY   63  52  67 NE5       30.14F
KENOSHA        CLOUDY    61  54  77 NE6       30.16S
FOND DU LAC    PTSUNNY   58  49  72 CALM      30.16F
SHEBOYGAN      CLOUDY    59  48  67 E7        30.17F
WEST BEND      CLOUDY    59  50  72 E6        30.16F
JUNEAU         PTSUNNY   59  51  75 E3        30.16F
$$

LSZ147-162-182100-
LAKE SUPERIOR

STATION/POSITION TIME  TEMP    WIND        PRES    WAVE
                       AIR SEA DIR/SP/G            HT/PER
                 (UTC) (F)     (DEG/KT/KT) (MB)    (FT/S)
W MID LAKE BUOY  1850   44 47  100/  8/ 10 1022.4F   1/ 3
DEVILS ISLAND    1900   45      70/  7/  9 1022.1F
PORT WING        1900   51      30/ 14/ 17 1020.7F
SAXON HARBOR     1940   49      30/  4/  7 1021.0F
$$

LMZ867-665-643>646-182100-
LAKE MICHIGAN

STATION/POSITION TIME  TEMP    WIND        PRES    WAVE
                       AIR SEA DIR/SP/G            HT/PER
                 (UTC) (F)     (DEG/KT/KT) (MB)    (FT/S)
N MID LAKE BUOY  1850   51 59   50/  6/  8 1023.3F   1/ 3
NORTHPORT PIER   1900   52      60/  5/  8 1022.7F
KEWAUNEE LAKESHO 1900   53      50/  7/  9 1021.6F
SHEBOYGAN LAKESH 1900   50 49   30/ 11/ 12 1022.9F
PORT WASHINGTON  1900   56      50/  9/ 13 1022.7F
ATWATER BUOY     1900   56      30/ 14/ 16 1022.6F
MILWAUKEE LAKESH 1900   55      30/ 13/ 15   N/A
S MID LAKE BUOY  1850   62 64  280/  4/  6 1021.2F   3/ 6
KENOSHA   LAKESH 1900   56      20/ 15/ 17 1021.0F
$$

TC  - TEMPERATURE IN CELSIUS
VSB - VISIBILITY IN STATUTE MILES
WCI - WIND CHILL INDEX
HX  - HEAT INDEX



USA.gov is the U.S. government's official web portal to all federal, state and local government web resources and services.